| time (UTC) | temp C | wind direction | speed KPH | gust KPH | rain 1hr cm | rain 24hr cm | rain mn cm | humidity % | barometer mb |
| 20260510130654 | 22 | 175 | 3.2 | 8.0 | 0.00 | 0.03 | 0.00 | 86 | 1013.6 |
| 20260510130150 | 22 | 153 | 3.2 | 8.0 | 0.00 | 0.03 | 0.00 | 86 | 1013.4 |
| 20260510125705 | 22 | 151 | 3.2 | 8.0 | 0.00 | 0.03 | 0.00 | 87 | 1013.3 |
| 20260510125201 | 22 | 151 | 0.0 | 8.0 | 0.00 | 0.03 | 0.00 | 86 | 1013.5 |
| 20260510124654 | 22 | 245 | 3.2 | 9.7 | 0.00 | 0.03 | 0.00 | 86 | 1013.2 |
| 20260510124145 | 22 | 227 | 4.8 | 9.7 | 0.00 | 0.03 | 0.00 | 86 | 1013.2 |
| 20260510123644 | 22 | 261 | 3.2 | 8.0 | 0.00 | 0.03 | 0.00 | 86 | 1013.3 |
| 20260510122726 | 22 | 255 | 1.6 | 6.4 | 0.00 | 0.03 | 0.00 | 86 | 1013.3 |
| 20260510122158 | 22 | 255 | 0.0 | 6.4 | 0.00 | 0.03 | 0.00 | 86 | 1013.3 |
| 20260510121642 | 22 | 253 | 1.6 | 12.9 | 0.00 | 0.03 | 0.00 | 86 | 1013.2 |
| 20260510121135 | 22 | 265 | 4.8 | 12.9 | 0.00 | 0.03 | 0.00 | 86 | 1013.0 |
| 20260510120639 | 22 | 166 | 0.0 | 11.3 | 0.00 | 0.03 | 0.00 | 86 | 1012.9 |
| 20260510120214 | 22 | 165 | 1.6 | 11.3 | 0.00 | 0.03 | 0.00 | 86 | 1012.7 |
| 20260510115712 | 22 | 184 | 8.0 | 12.9 | 0.00 | 0.03 | 0.00 | 86 | 1012.8 |
| 20260510115209 | 22 | 168 | 9.7 | 16.1 | 0.00 | 0.03 | 0.00 | 86 | 1012.8 |
| 20260510114711 | 22 | 188 | 9.7 | 16.1 | 0.00 | 0.03 | 0.00 | 86 | 1012.8 |
| 20260510114213 | 22 | 188 | 9.7 | 14.5 | 0.00 | 0.03 | 0.00 | 85 | 1012.8 |
| 20260510113704 | 22 | 184 | 11.3 | 16.1 | 0.00 | 0.03 | 0.00 | 85 | 1012.7 |
| 20260510113157 | 22 | 201 | 11.3 | 16.1 | 0.00 | 0.03 | 0.00 | 85 | 1012.6 |
| 20260510112652 | 22 | 196 | 9.7 | 14.5 | 0.00 | 0.03 | 0.00 | 85 | 1012.7 |
| 20260510112147 | 22 | 178 | 11.3 | 14.5 | 0.00 | 0.03 | 0.00 | 85 | 1012.7 |
| 20260510111208 | 22 | 188 | 8.0 | 12.9 | 0.00 | 0.03 | 0.00 | 85 | 1012.7 |
| 20260510110639 | 22 | 172 | 8.0 | 12.9 | 0.00 | 0.03 | 0.00 | 84 | 1012.7 |
| 20260510110213 | 22 | 173 | 8.0 | 14.5 | 0.00 | 0.03 | 0.00 | 84 | 1012.7 |
| 20260510105627 | 22 | 178 | 9.7 | 14.5 | 0.00 | 0.03 | 0.00 | 85 | 1012.7 |
| 20260510105122 | 21 | 177 | 6.4 | 11.3 | 0.00 | 0.03 | 0.00 | 85 | 1012.8 |
| 20260510104645 | 21 | 162 | 4.8 | 11.3 | 0.00 | 0.03 | 0.00 | 84 | 1012.7 |
| 20260510104140 | 21 | 97 | 6.4 | 14.5 | 0.00 | 0.03 | 0.00 | 84 | 1012.7 |
| 20260510103208 | 21 | 99 | 9.7 | 16.1 | 0.00 | 0.03 | 0.00 | 84 | 1012.5 |
| 20260510102643 | 22 | 120 | 14.5 | 16.1 | 0.00 | 0.03 | 0.00 | 83 | 1012.6 |
| 20260510102157 | 22 | 94 | 11.3 | 14.5 | 0.00 | 0.03 | 0.00 | 82 | 1012.6 |
| 20260510101655 | 22 | 111 | 8.0 | 11.3 | 0.00 | 0.03 | 0.00 | 81 | 1012.7 |
| 20260510101159 | 22 | 112 | 3.2 | 16.1 | 0.00 | 0.03 | 0.00 | 81 | 1012.7 |
| 20260510100629 | 22 | 169 | 8.0 | 16.1 | 0.00 | 0.03 | 0.00 | 81 | 1012.8 |
| 20260510100145 | 22 | 150 | 11.3 | 12.9 | 0.00 | 0.03 | 0.00 | 81 | 1013.0 |
| 20260510095156 | 22 | 184 | 4.8 | 9.7 | 0.00 | 0.03 | 0.00 | 81 | 1013.0 |
| 20260510094648 | 22 | 190 | 3.2 | 9.7 | 0.00 | 0.03 | 0.00 | 81 | 1012.9 |
| 20260510094140 | 22 | 195 | 3.2 | 11.3 | 0.00 | 0.03 | 0.00 | 81 | 1013.0 |
| 20260510093657 | 22 | 187 | 8.0 | 12.9 | 0.00 | 0.03 | 0.00 | 81 | 1013.1 |
| 20260510093150 | 22 | 168 | 8.0 | 12.9 | 0.00 | 0.03 | 0.00 | 81 | 1013.0 |
| 20260510092647 | 22 | 209 | 6.4 | 11.3 | 0.00 | 0.03 | 0.00 | 81 | 1012.8 |
| 20260510091656 | 22 | 155 | 3.2 | 8.0 | 0.00 | 0.03 | 0.00 | 82 | 1012.9 |
| 20260510091148 | 22 | 141 | 4.8 | 9.7 | 0.00 | 0.03 | 0.00 | 82 | 1012.8 |
| 20260510090658 | 22 | 141 | 3.2 | 9.7 | 0.00 | 0.03 | 0.00 | 82 | 1012.7 |
| 20260510085654 | 23 | 131 | 0.0 | 8.0 | 0.00 | 0.03 | 0.00 | 82 | 1012.8 |
| 20260510085148 | 23 | 104 | 0.0 | 3.2 | 0.00 | 0.03 | 0.00 | 82 | 1012.8 |
| 20260510084622 | 23 | 104 | 0.0 | 9.7 | 0.00 | 0.03 | 0.00 | 82 | 1012.8 |
| 20260510084219 | 23 | 104 | 1.6 | 9.7 | 0.00 | 0.03 | 0.00 | 82 | 1012.8 |
| 20260510083648 | 23 | 104 | 3.2 | 11.3 | 0.00 | 0.03 | 0.00 | 83 | 1012.8 |
| 20260510082711 | 23 | 126 | 1.6 | 14.5 | 0.00 | 0.03 | 0.00 | 83 | 1012.7 |
| 20260510082206 | 23 | 118 | 6.4 | 14.5 | 0.00 | 0.03 | 0.00 | 83 | 1012.9 |
| 20260510081656 | 23 | 111 | 9.7 | 12.9 | 0.00 | 0.03 | 0.00 | 83 | 1012.9 |
| 20260510081153 | 23 | 143 | 8.0 | 11.3 | 0.00 | 0.03 | 0.00 | 83 | 1012.9 |
| 20260510080649 | 23 | 104 | 9.7 | 11.3 | 0.00 | 0.03 | 0.00 | 84 | 1012.8 |
| 20260510080140 | 23 | 101 | 9.7 | 11.3 | 0.00 | 0.03 | 0.00 | 83 | 1013.0 |
| 20260510075655 | 23 | 97 | 3.2 | 8.0 | 0.00 | 0.03 | 0.00 | 83 | 1012.9 |
| 20260510075153 | 23 | 76 | 3.2 | 8.0 | 0.00 | 0.03 | 0.00 | 84 | 1012.8 |
| 20260510074708 | 23 | 86 | 3.2 | 11.3 | 0.00 | 0.03 | 0.00 | 84 | 1012.9 |
| 20260510074158 | 23 | 121 | 4.8 | 12.9 | 0.00 | 0.03 | 0.00 | 84 | 1012.7 |
| 20260510073656 | 23 | 110 | 9.7 | 12.9 | 0.00 | 0.03 | 0.00 | 83 | 1012.8 |
| 20260510073151 | 23 | 122 | 9.7 | 12.9 | 0.00 | 0.03 | 0.00 | 84 | 1012.9 |
| 20260510072648 | 23 | 116 | 9.7 | 12.9 | 0.00 | 0.03 | 0.00 | 83 | 1012.8 |
| 20260510072145 | 23 | 93 | 11.3 | 14.5 | 0.00 | 0.03 | 0.00 | 83 | 1012.8 |
| 20260510071616 | 23 | 133 | 9.7 | 14.5 | 0.00 | 0.03 | 0.00 | 83 | 1012.8 |
| 20260510071213 | 23 | 134 | 9.7 | 12.9 | 0.00 | 0.03 | 0.00 | 84 | 1012.8 |
| 20260510070724 | 23 | 142 | 9.7 | 12.9 | 0.00 | 0.03 | 0.00 | 83 | 1012.8 |
| 20260510070158 | 23 | 146 | 8.0 | 12.9 | 0.00 | 0.03 | 0.00 | 83 | 1012.8 |
| 20260510065624 | 23 | 153 | 9.7 | 12.9 | 0.00 | 0.03 | 0.00 | 83 | 1012.8 |
| 20260510065114 | 23 | 159 | 8.0 | 9.7 | 0.00 | 0.03 | 0.00 | 84 | 1012.8 |
| 20260510064627 | 24 | 159 | 6.4 | 9.7 | 0.00 | 0.03 | 0.00 | 84 | 1012.8 |
| 20260510064119 | 23 | 128 | 6.4 | 9.7 | 0.00 | 0.03 | 0.00 | 83 | 1012.7 |
| 20260510063631 | 23 | 111 | 8.0 | 9.7 | 0.00 | 0.03 | 0.00 | 83 | 1012.7 |
| 20260510063124 | 23 | 99 | 6.4 | 8.0 | 0.00 | 0.03 | 0.00 | 83 | 1012.7 |
| 20260510062618 | 23 | 99 | 3.2 | 8.0 | 0.00 | 0.03 | 0.00 | 83 | 1012.6 |
| 20260510062131 | 23 | 100 | 4.8 | 8.0 | 0.00 | 0.03 | 0.00 | 83 | 1012.6 |
| 20260510061626 | 23 | 100 | 3.2 | 8.0 | 0.00 | 0.03 | 0.00 | 83 | 1012.6 |
| 20260510061120 | 23 | 105 | 1.6 | 8.0 | 0.00 | 0.03 | 0.00 | 83 | 1012.7 |
| 20260510060653 | 23 | 109 | 1.6 | 9.7 | 0.00 | 0.03 | 0.00 | 83 | 1012.6 |
| 20260510060124 | 24 | 107 | 4.8 | 12.9 | 0.00 | 0.03 | 0.00 | 83 | 1012.6 |
| 20260510055623 | 23 | 101 | 8.0 | 12.9 | 0.00 | 0.03 | 0.00 | 83 | 1012.7 |
| 20260510055117 | 23 | 99 | 8.0 | 11.3 | 0.00 | 0.03 | 0.00 | 83 | 1012.7 |
| 20260510054631 | 24 | 99 | 8.0 | 11.3 | 0.00 | 0.03 | 0.00 | 83 | 1012.7 |
| 20260510054123 | 24 | 114 | 8.0 | 11.3 | 0.00 | 0.03 | 0.00 | 83 | 1012.7 |
| 20260510053638 | 24 | 118 | 6.4 | 16.1 | 0.00 | 0.03 | 0.00 | 82 | 1012.6 |
| 20260510053129 | 24 | 97 | 9.7 | 16.1 | 0.00 | 0.03 | 0.00 | 82 | 1012.7 |
| 20260510052623 | 24 | 100 | 14.5 | 16.1 | 0.00 | 0.03 | 0.00 | 82 | 1012.7 |
| 20260510052138 | 24 | 86 | 11.3 | 14.5 | 0.00 | 0.03 | 0.00 | 83 | 1012.7 |
| 20260510051631 | 24 | 101 | 11.3 | 16.1 | 0.00 | 0.03 | 0.00 | 83 | 1012.6 |
| 20260510051145 | 24 | 101 | 12.9 | 17.7 | 0.00 | 0.03 | 0.00 | 83 | 1012.5 |
| 20260510050618 | 24 | 102 | 14.5 | 17.7 | 0.00 | 0.03 | 0.00 | 83 | 1012.6 |
| 20260510050131 | 24 | 105 | 9.7 | 12.9 | 0.00 | 0.03 | 0.00 | 82 | 1012.5 |
| 20260510045713 | 24 | 113 | 8.0 | 9.7 | 0.00 | 0.03 | 0.03 | 82 | 1012.6 |
| 20260510045206 | 24 | 122 | 6.4 | 8.0 | 0.00 | 0.03 | 0.03 | 82 | 1012.6 |
| 20260510044657 | 25 | 133 | 4.8 | 8.0 | 0.00 | 0.03 | 0.03 | 82 | 1012.6 |
| 20260510044147 | 25 | 132 | 6.4 | 8.0 | 0.00 | 0.03 | 0.03 | 81 | 1012.5 |
| 20260510043129 | 25 | 115 | 6.4 | 8.0 | 0.00 | 0.03 | 0.03 | 80 | 1012.4 |
| 20260510042734 | 25 | 115 | 3.2 | 4.8 | 0.00 | 0.03 | 0.03 | 80 | 1012.3 |
| 20260510042206 | 25 | 115 | 3.2 | 6.4 | 0.00 | 0.03 | 0.03 | 80 | 1012.2 |
| 20260510041658 | 25 | 115 | 1.6 | 4.8 | 0.00 | 0.03 | 0.03 | 79 | 1012.1 |
| 20260510041154 | 25 | 115 | 0.0 | 6.4 | 0.00 | 0.03 | 0.03 | 79 | 1012.1 |
| 20260510040650 | 25 | 115 | 1.6 | 6.4 | 0.00 | 0.03 | 0.03 | 79 | 1012.1 |
| 20260510040144 | 25 | 115 | 3.2 | 6.4 | 0.00 | 0.03 | 0.03 | 79 | 1012.2 |
| 20260510035641 | 25 | 115 | 4.8 | 9.7 | 0.00 | 0.03 | 0.03 | 78 | 1012.1 |
| 20260510035115 | 25 | 115 | 6.4 | 9.7 | 0.00 | 0.03 | 0.03 | 78 | 1012.1 |
| 20260510034627 | 25 | 113 | 8.0 | 11.3 | 0.00 | 0.03 | 0.03 | 78 | 1012.0 |
| 20260510034226 | 25 | 118 | 8.0 | 11.3 | 0.00 | 0.03 | 0.03 | 78 | 1011.9 |
| 20260510033659 | 25 | 106 | 9.7 | 11.3 | 0.00 | 0.03 | 0.03 | 78 | 1012.0 |
| 20260510033150 | 25 | 118 | 9.7 | 11.3 | 0.00 | 0.03 | 0.03 | 77 | 1012.0 |
| 20260510032649 | 25 | 118 | 9.7 | 11.3 | 0.00 | 0.03 | 0.03 | 77 | 1012.0 |
| 20260510032146 | 25 | 114 | 6.4 | 9.7 | 0.00 | 0.03 | 0.03 | 76 | 1011.9 |
| 20260510031644 | 26 | 120 | 8.0 | 9.7 | 0.00 | 0.03 | 0.03 | 76 | 1011.8 |
| 20260510030712 | 26 | 120 | 8.0 | 12.9 | 0.00 | 0.03 | 0.03 | 75 | 1011.7 |
| 20260510030123 | 26 | 118 | 9.7 | 12.9 | 0.00 | 0.03 | 0.03 | 75 | 1011.7 |
| 20260510025642 | 26 | 111 | 9.7 | 12.9 | 0.00 | 0.03 | 0.03 | 75 | 1011.6 |
| 20260510025155 | 26 | 105 | 11.3 | 14.5 | 0.00 | 0.03 | 0.03 | 75 | 1011.7 |
| 20260510024706 | 26 | 105 | 11.3 | 14.5 | 0.00 | 0.03 | 0.03 | 74 | 1011.5 |
| 20260510024157 | 26 | 101 | 11.3 | 14.5 | 0.00 | 0.03 | 0.03 | 74 | 1011.4 |
| 20260510023641 | 26 | 104 | 9.7 | 12.9 | 0.00 | 0.03 | 0.03 | 73 | 1011.4 |
| 20260510022710 | 26 | 103 | 9.7 | 12.9 | 0.00 | 0.03 | 0.03 | 72 | 1011.3 |
| 20260510022122 | 26 | 106 | 8.0 | 9.7 | 0.00 | 0.03 | 0.03 | 72 | 1011.3 |
| 20260510021622 | 26 | 107 | 8.0 | 9.7 | 0.00 | 0.03 | 0.03 | 71 | 1011.2 |
| 20260510021134 | 26 | 111 | 8.0 | 11.3 | 0.00 | 0.03 | 0.03 | 71 | 1011.2 |
| 20260510020614 | 26 | 110 | 8.0 | 12.9 | 0.00 | 0.03 | 0.03 | 71 | 1011.2 |
| 20260510020127 | 26 | 108 | 8.0 | 12.9 | 0.00 | 0.03 | 0.03 | 70 | 1011.0 |
| 20260510015728 | 26 | 122 | 9.7 | 12.9 | 0.00 | 0.03 | 0.03 | 70 | 1011.1 |
| 20260510015159 | 26 | 111 | 9.7 | 12.9 | 0.00 | 0.03 | 0.03 | 69 | 1011.0 |
| 20260510014654 | 27 | 118 | 9.7 | 16.1 | 0.00 | 0.03 | 0.03 | 69 | 1010.9 |
| 20260510014145 | 27 | 117 | 11.3 | 16.1 | 0.00 | 0.03 | 0.03 | 68 | 1010.8 |
| 20260510013207 | 27 | 113 | 11.3 | 17.7 | 0.00 | 0.03 | 0.03 | 66 | 1010.7 |
| 20260510012127 | 27 | 109 | 12.9 | 16.1 | 0.00 | 0.03 | 0.03 | 65 | 1010.5 |
| 20260510011733 | 27 | 107 | 11.3 | 16.1 | 0.00 | 0.03 | 0.03 | 65 | 1010.5 |
| 20260510011125 | 27 | 103 | 12.9 | 16.1 | 0.00 | 0.03 | 0.03 | 64 | 1010.6 |
| 20260510010637 | 27 | 101 | 12.9 | 14.5 | 0.00 | 0.03 | 0.03 | 64 | 1010.4 |
| 20260510010134 | 27 | 106 | 11.3 | 16.1 | 0.00 | 0.03 | 0.03 | 64 | 1010.3 |
| 20260510005627 | 27 | 107 | 11.3 | 16.1 | 0.00 | 0.03 | 0.03 | 63 | 1010.4 |
| 20260510005225 | 28 | 131 | 11.3 | 20.9 | 0.00 | 0.03 | 0.03 | 61 | 1010.3 |
| 20260510004659 | 28 | 136 | 12.9 | 20.9 | 0.00 | 0.03 | 0.03 | 59 | 1010.3 |
| 20260510004151 | 28 | 107 | 12.9 | 17.7 | 0.00 | 0.03 | 0.03 | 58 | 1010.2 |
| 20260510003644 | 28 | 125 | 12.9 | 16.1 | 0.00 | 0.03 | 0.03 | 57 | 1010.1 |
| 20260510003142 | 28 | 118 | 12.9 | 17.7 | 0.00 | 0.03 | 0.03 | 56 | 1010.0 |
| 20260510002635 | 28 | 117 | 12.9 | 17.7 | 0.00 | 0.03 | 0.03 | 57 | 1009.9 |
| 20260510002130 | 28 | 126 | 11.3 | 16.1 | 0.00 | 0.03 | 0.03 | 55 | 1009.9 |
| 20260510001625 | 28 | 138 | 12.9 | 16.1 | 0.00 | 0.03 | 0.03 | 56 | 1010.0 |
| 20260510001129 | 28 | 144 | 12.9 | 16.1 | 0.00 | 0.03 | 0.03 | 57 | 1009.9 |
| 20260510000632 | 28 | 142 | 11.3 | 14.5 | 0.00 | 0.03 | 0.03 | 61 | 1009.9 |
| 20260510000128 | 28 | 152 | 11.3 | 12.9 | 0.00 | 0.03 | 0.03 | 59 | 1009.8 |
| 20260509235632 | 28 | 140 | 11.3 | 14.5 | 0.00 | 0.03 | 0.03 | 60 | 1009.7 |
| 20260509235133 | 28 | 128 | 9.7 | 14.5 | 0.00 | 0.03 | 0.03 | 60 | 1009.7 |
| 20260509234629 | 28 | 128 | 9.7 | 14.5 | 0.00 | 0.03 | 0.03 | 60 | 1009.7 |
| 20260509234146 | 28 | 133 | 11.3 | 14.5 | 0.00 | 0.03 | 0.03 | 63 | 1009.7 |
| 20260509233701 | 28 | 142 | 11.3 | 16.1 | 0.00 | 0.03 | 0.03 | 63 | 1009.6 |
| 20260509233154 | 28 | 141 | 11.3 | 22.5 | 0.00 | 0.03 | 0.03 | 65 | 1009.6 |
| 20260509232647 | 27 | 136 | 16.1 | 22.5 | 0.00 | 0.03 | 0.03 | 64 | 1009.5 |
| 20260509232149 | 27 | 153 | 11.3 | 12.9 | 0.00 | 0.03 | 0.03 | 69 | 1009.6 |
| 20260509231701 | 27 | 146 | 6.4 | 11.3 | 0.00 | 0.03 | 0.03 | 69 | 1009.5 |
| 20260509231151 | 27 | 155 | 9.7 | 12.9 | 0.00 | 0.03 | 0.03 | 69 | 1009.6 |
| 20260509230644 | 27 | 165 | 11.3 | 19.3 | 0.00 | 0.03 | 0.03 | 68 | 1009.4 |
| 20260509225622 | 28 | 166 | 14.5 | 20.9 | 0.00 | 0.03 | 0.03 | 67 | 1009.5 |
| 20260509225136 | 28 | 161 | 9.7 | 12.9 | 0.00 | 0.03 | 0.03 | 67 | 1009.5 |
| 20260509224655 | 28 | 141 | 9.7 | 14.5 | 0.00 | 0.03 | 0.03 | 65 | 1009.5 |
| 20260509224147 | 28 | 149 | 11.3 | 16.1 | 0.00 | 0.03 | 0.03 | 64 | 1009.4 |
| 20260509223658 | 28 | 143 | 12.9 | 19.3 | 0.00 | 0.03 | 0.03 | 64 | 1009.5 |
| 20260509223147 | 27 | 122 | 14.5 | 22.5 | 0.00 | 0.03 | 0.03 | 65 | 1009.5 |
| 20260509222707 | 27 | 132 | 17.7 | 24.1 | 0.00 | 0.03 | 0.03 | 65 | 1009.4 |
| 20260509222208 | 27 | 132 | 17.7 | 40.2 | 0.00 | 0.03 | 0.03 | 65 | 1009.5 |
| 20260509221646 | 26 | 134 | 27.4 | 51.5 | 0.00 | 0.03 | 0.03 | 65 | 1009.7 |
| 20260509221144 | 27 | 136 | 33.8 | 57.9 | 0.00 | 0.03 | 0.03 | 66 | 1009.7 |
| 20260509220641 | 28 | 124 | 30.6 | 57.9 | 0.00 | 0.03 | 0.03 | 65 | 1009.9 |
| 20260509220135 | 29 | 120 | 24.1 | 33.8 | 0.00 | 0.03 | 0.03 | 65 | 1009.8 |
| 20260509215639 | 29 | 101 | 17.7 | 33.8 | 0.00 | 0.03 | 0.03 | 63 | 1009.9 |
| 20260509215138 | 30 | 90 | 11.3 | 22.5 | 0.00 | 0.03 | 0.03 | 65 | 1009.6 |
| 20260509214650 | 30 | 152 | 3.2 | 6.4 | 0.00 | 0.03 | 0.03 | 66 | 1009.5 |
| 20260509214147 | 30 | 143 | 1.6 | 3.2 | 0.00 | 0.03 | 0.03 | 66 | 1009.6 |
| 20260509213648 | 30 | 143 | 0.0 | 1.6 | 0.00 | 0.03 | 0.03 | 68 | 1009.7 |
| 20260509213145 | 30 | 143 | 0.0 | 1.6 | 0.00 | 0.03 | 0.03 | 68 | 1009.8 |
| 20260509212620 | 30 | 143 | 0.0 | 1.6 | 0.00 | 0.03 | 0.03 | 69 | 1009.8 |
| 20260509212116 | 29 | 146 | 0.0 | 1.6 | 0.00 | 0.03 | 0.03 | 69 | 1009.9 |
| 20260509211701 | 29 | 146 | 0.0 | 0.0 | 0.00 | 0.03 | 0.03 | 71 | 1009.8 |
| 20260509210658 | 29 | 146 | 0.0 | 1.6 | 0.00 | 0.03 | 0.03 | 72 | 1010.0 |
| 20260509210131 | 29 | 146 | 1.6 | 1.6 | 0.00 | 0.03 | 0.03 | 71 | 1010.0 |
| 20260509205641 | 29 | 146 | 0.0 | 3.2 | 0.00 | 0.03 | 0.03 | 71 | 1010.2 |
| 20260509205153 | 29 | 146 | 1.6 | 3.2 | 0.00 | 0.03 | 0.03 | 73 | 1010.1 |
| 20260509204701 | 29 | 146 | 0.0 | 1.6 | 0.00 | 0.03 | 0.03 | 73 | 1010.2 |
| 20260509204113 | 29 | 146 | 0.0 | 1.6 | 0.00 | 0.03 | 0.03 | 73 | 1010.1 |
| 20260509203630 | 29 | 146 | 0.0 | 6.4 | 0.00 | 0.03 | 0.03 | 73 | 1010.3 |
| 20260509203230 | 28 | 146 | 1.6 | 6.4 | 0.00 | 0.03 | 0.03 | 74 | 1010.3 |
| 20260509202707 | 28 | 146 | 3.2 | 4.8 | 0.00 | 0.03 | 0.03 | 74 | 1010.4 |
| 20260509201713 | 28 | 145 | 0.0 | 1.6 | 0.00 | 0.03 | 0.03 | 74 | 1010.4 |
| 20260509201153 | 28 | 145 | 0.0 | 3.2 | 0.00 | 0.03 | 0.03 | 74 | 1010.8 |
| 20260509200638 | 28 | 145 | 1.6 | 3.2 | 0.00 | 0.03 | 0.03 | 75 | 1010.7 |
| 20260509200148 | 27 | 145 | 0.0 | 6.4 | 0.00 | 0.03 | 0.03 | 75 | 1010.8 |
| 20260509195703 | 27 | 145 | 3.2 | 8.0 | 0.00 | 0.03 | 0.03 | 75 | 1010.9 |
| 20260509195155 | 27 | 147 | 6.4 | 9.7 | 0.00 | 0.03 | 0.03 | 76 | 1010.9 |
| 20260509194709 | 27 | 147 | 8.0 | 9.7 | 0.00 | 0.03 | 0.03 | 78 | 1010.9 |
| 20260509194158 | 28 | 159 | 8.0 | 9.7 | 0.00 | 0.03 | 0.03 | 79 | 1010.8 |
| 20260509193706 | 28 | 173 | 8.0 | 9.7 | 0.00 | 0.03 | 0.03 | 77 | 1010.9 |
| 20260509193140 | 28 | 180 | 8.0 | 9.7 | 0.00 | 0.03 | 0.03 | 76 | 1011.0 |
| 20260509192211 | 28 | 269 | 1.6 | 9.7 | 0.00 | 0.03 | 0.03 | 74 | 1011.4 |
| 20260509191704 | 28 | 269 | 3.2 | 9.7 | 0.00 | 0.03 | 0.03 | 74 | 1011.4 |
| 20260509191200 | 28 | 230 | 4.8 | 9.7 | 0.00 | 0.03 | 0.03 | 74 | 1011.4 |
| 20260509190654 | 28 | 226 | 8.0 | 9.7 | 0.00 | 0.03 | 0.03 | 75 | 1011.6 |
| 20260509190151 | 28 | 252 | 1.6 | 12.9 | 0.00 | 0.03 | 0.03 | 77 | 1011.6 |
| 20260509185624 | 28 | 20 | 8.0 | 14.5 | 0.00 | 0.03 | 0.03 | 76 | 1011.7 |
| 20260509185146 | 27 | 288 | 1.6 | 12.9 | 0.00 | 0.03 | 0.03 | 77 | 1011.7 |
| 20260509184641 | 27 | 334 | 3.2 | 9.7 | 0.00 | 0.03 | 0.03 | 79 | 1011.8 |
| 20260509184139 | 27 | 288 | 1.6 | 9.7 | 0.00 | 0.03 | 0.03 | 80 | 1011.9 |
| 20260509183636 | 27 | 346 | 3.2 | 9.7 | 0.00 | 0.03 | 0.03 | 80 | 1011.9 |
| 20260509183212 | 27 | 316 | 1.6 | 9.7 | 0.00 | 0.03 | 0.03 | 80 | 1011.8 |
| 20260509182707 | 27 | 294 | 3.2 | 9.7 | 0.00 | 0.03 | 0.03 | 81 | 1011.7 |
| 20260509182145 | 27 | 336 | 4.8 | 9.7 | 0.00 | 0.03 | 0.03 | 81 | 1011.9 |
| 20260509181126 | 26 | 286 | 4.8 | 11.3 | 0.00 | 0.03 | 0.03 | 82 | 1012.1 |
| 20260509180624 | 26 | 24 | 6.4 | 12.9 | 0.00 | 0.03 | 0.03 | 83 | 1012.2 |
| 20260509180132 | 26 | 334 | 6.4 | 14.5 | 0.00 | 0.03 | 0.03 | 83 | 1012.3 |
| 20260509175629 | 26 | 342 | 6.4 | 14.5 | 0.00 | 0.03 | 0.03 | 84 | 1012.3 |
| 20260509175124 | 26 | 334 | 4.8 | 12.9 | 0.00 | 0.03 | 0.03 | 85 | 1012.4 |
| 20260509174618 | 26 | 288 | 0.0 | 9.7 | 0.00 | 0.03 | 0.03 | 85 | 1012.4 |
| 20260509174131 | 26 | 287 | 3.2 | 11.3 | 0.00 | 0.03 | 0.03 | 86 | 1012.6 |
| 20260509173645 | 26 | 304 | 4.8 | 11.3 | 0.00 | 0.03 | 0.03 | 86 | 1012.5 |
| 20260509172622 | 25 | 334 | 8.0 | 9.7 | 0.00 | 0.03 | 0.03 | 87 | 1012.6 |
| 20260509172146 | 25 | 325 | 3.2 | 12.9 | 0.00 | 0.03 | 0.03 | 87 | 1012.7 |
| 20260509171627 | 25 | 10 | 8.0 | 12.9 | 0.00 | 0.03 | 0.03 | 88 | 1012.8 |
| 20260509171126 | 25 | 307 | 9.7 | 12.9 | 0.00 | 0.03 | 0.03 | 88 | 1012.8 |
| 20260509170730 | 25 | 297 | 8.0 | 12.9 | 0.00 | 0.03 | 0.03 | 89 | 1012.7 |
| 20260509170118 | 25 | 292 | 9.7 | 12.9 | 0.00 | 0.03 | 0.03 | 89 | 1012.7 |
| 20260509165658 | 25 | 324 | 4.8 | 11.3 | 0.00 | 0.03 | 0.03 | 90 | 1012.7 |
| 20260509165148 | 24 | 324 | 4.8 | 11.3 | 0.00 | 0.03 | 0.03 | 90 | 1012.5 |
| 20260509164658 | 24 | 299 | 1.6 | 8.0 | 0.00 | 0.03 | 0.03 | 90 | 1012.5 |
| 20260509164154 | 24 | 299 | 3.2 | 11.3 | 0.00 | 0.03 | 0.03 | 90 | 1012.7 |
| 20260509163651 | 24 | 299 | 8.0 | 14.5 | 0.00 | 0.03 | 0.03 | 90 | 1012.7 |
| 20260509163150 | 24 | 307 | 8.0 | 14.5 | 0.00 | 0.03 | 0.03 | 90 | 1012.8 |
| 20260509162644 | 23 | 297 | 9.7 | 14.5 | 0.00 | 0.03 | 0.03 | 91 | 1012.9 |
| 20260509162141 | 23 | 301 | 9.7 | 12.9 | 0.00 | 0.03 | 0.03 | 91 | 1012.9 |
| 20260509161655 | 23 | 305 | 8.0 | 12.9 | 0.00 | 0.03 | 0.03 | 91 | 1013.0 |
| 20260509161150 | 23 | 313 | 4.8 | 9.7 | 0.00 | 0.03 | 0.03 | 91 | 1013.0 |
| 20260509160644 | 23 | 332 | 4.8 | 9.7 | 0.00 | 0.03 | 0.03 | 92 | 1012.9 |
| 20260509160138 | 23 | 320 | 4.8 | 12.9 | 0.00 | 0.03 | 0.03 | 92 | 1013.0 |
| 20260509155655 | 23 | 317 | 4.8 | 14.5 | 0.00 | 0.03 | 0.03 | 92 | 1013.0 |
| 20260509155206 | 23 | 318 | 6.4 | 14.5 | 0.00 | 0.03 | 0.03 | 92 | 1013.1 |
| 20260509154638 | 23 | 282 | 0.0 | 3.2 | 0.00 | 0.03 | 0.03 | 92 | 1012.9 |
| 20260509154150 | 23 | 282 | 1.6 | 3.2 | 0.00 | 0.03 | 0.03 | 92 | 1012.9 |
| 20260509153644 | 23 | 193 | 0.0 | 1.6 | 0.00 | 0.03 | 0.03 | 92 | 1012.9 |
| 20260509153140 | 22 | 193 | 0.0 | 1.6 | 0.00 | 0.03 | 0.03 | 92 | 1012.9 |
| 20260509152635 | 22 | 193 | 0.0 | 9.7 | 0.00 | 0.03 | 0.03 | 92 | 1013.0 |
| 20260509152126 | 22 | 193 | 1.6 | 12.9 | 0.00 | 0.03 | 0.03 | 92 | 1012.9 |
| 20260509151710 | 22 | 188 | 9.7 | 14.5 | 0.00 | 0.03 | 0.03 | 92 | 1012.7 |
| 20260509151126 | 22 | 178 | 12.9 | 14.5 | 0.00 | 0.03 | 0.03 | 92 | 1012.5 |
| 20260509150638 | 22 | 180 | 8.0 | 11.3 | 0.00 | 0.03 | 0.03 | 92 | 1012.8 |
| 20260509145711 | 22 | 198 | 8.0 | 12.9 | 0.03 | 0.03 | 0.03 | 92 | 1013.1 |
| 20260509145149 | 22 | 195 | 11.3 | 12.9 | 0.03 | 0.03 | 0.03 | 92 | 1013.1 |
| 20260509144212 | 22 | 193 | 4.8 | 9.7 | 0.03 | 0.03 | 0.03 | 92 | 1013.2 |
| 20260509143708 | 22 | 195 | 6.4 | 11.3 | 0.03 | 0.03 | 0.03 | 92 | 1013.4 |
| 20260509143204 | 22 | 201 | 9.7 | 12.9 | 0.03 | 0.03 | 0.03 | 92 | 1013.3 |
| 20260509142658 | 22 | 211 | 9.7 | 12.9 | 0.03 | 0.03 | 0.03 | 92 | 1013.1 |
| 20260509142151 | 22 | 105 | 0.0 | 3.2 | 0.03 | 0.03 | 0.03 | 92 | 1013.0 |
| 20260509141731 | 22 | 105 | 1.6 | 3.2 | 0.03 | 0.03 | 0.03 | 92 | 1012.8 |
| 20260509141201 | 22 | 105 | 0.0 | 1.6 | 0.03 | 0.03 | 0.03 | 92 | 1012.8 |
| 20260509140651 | 22 | 105 | 0.0 | 0.0 | 0.03 | 0.03 | 0.03 | 92 | 1012.5 |
| 20260509140148 | 22 | 105 | 0.0 | 0.0 | 0.03 | 0.03 | 0.03 | 92 | 1012.5 |
| 20260509135634 | 22 | 111 | 0.0 | 3.2 | 0.00 | 0.00 | 0.00 | 92 | 1012.5 |
| 20260509135130 | 22 | 111 | 0.0 | 9.7 | 0.00 | 0.00 | 0.00 | 92 | 1012.3 |
| 20260509134638 | 22 | 111 | 6.4 | 9.7 | 0.00 | 0.00 | 0.00 | 92 | 1012.4 |
| 20260509134124 | 22 | 132 | 6.4 | 8.0 | 0.00 | 0.00 | 0.00 | 92 | 1012.3 |
| 20260509133616 | 22 | 153 | 1.6 | 6.4 | 0.00 | 0.00 | 0.00 | 92 | 1012.4 |
| 20260509133213 | 22 | 153 | 1.6 | 6.4 | 0.00 | 0.00 | 0.00 | 92 | 1012.6 |
| 20260509132648 | 22 | 153 | 3.2 | 6.4 | 0.00 | 0.00 | 0.00 | 92 | 1012.6 |
| 20260509132144 | 22 | 153 | 1.6 | 3.2 | 0.00 | 0.00 | 0.00 | 92 | 1012.6 |
| 20260509131207 | 22 | 153 | 0.0 | 3.2 | 0.00 | 0.00 | 0.00 | 92 | 1012.8 |